"datetime","temp","dp","rain_mm","uv","solar","mb","wind_mph","gust_mph","windchill","rh"
"2023-11-27 00:00:00",9.7,8.9,0.0,0.0,0,1004.3,1,2,"",95
"2023-11-27 00:01:00",9.7,8.9,0.0,0.0,0,1004.2,2,3,"",95
"2023-11-27 00:02:00",9.8,9.0,0.0,0.0,0,1004.2,2,3,"",95
"2023-11-27 00:03:00",9.7,8.9,0.0,0.0,0,1004.1,2,5,8.6,95
"2023-11-27 00:04:00",9.7,8.9,0.0,0.0,0,1004.1,2,4,9.0,95
"2023-11-27 00:05:00",9.7,8.9,0.0,0.0,0,1004.2,2,3,"",95
"2023-11-27 00:06:00",9.7,9.1,0.0,0.0,0,1004.0,2,3,"",96
"2023-11-27 00:07:00",9.7,8.9,0.0,0.0,0,1004.1,1,3,"",95
"2023-11-27 00:08:00",9.7,8.9,0.0,0.0,0,1004.1,0,2,"",95
"2023-11-27 00:09:00",9.7,8.9,0.0,0.0,0,1004.1,1,2,"",95
"2023-11-27 00:10:00",9.7,8.9,0.0,0.0,0,1004.1,2,3,"",95
"2023-11-27 00:11:00",9.7,8.9,0.0,0.0,0,1004.1,2,3,"",95
"2023-11-27 00:12:00",9.7,8.9,0.0,0.0,0,1004.0,1,3,"",95
"2023-11-27 00:13:00",9.7,8.9,0.0,0.0,0,1004.0,1,3,"",95
"2023-11-27 00:14:00",9.7,8.9,0.0,0.0,0,1004.0,1,3,"",95
"2023-11-27 00:15:00",9.7,8.9,0.0,0.0,0,1004.0,1,2,"",95
"2023-11-27 00:16:00",9.7,8.9,0.0,0.0,0,1004.0,1,2,"",95
"2023-11-27 00:17:00",9.7,8.9,0.0,0.0,0,1004.0,1,3,"",95
"2023-11-27 00:18:00",9.6,8.8,0.0,0.0,0,1003.9,2,3,"",95
"2023-11-27 00:19:00",9.7,8.9,0.0,0.0,0,1003.9,1,2,"",95
"2023-11-27 00:20:00",9.7,8.9,0.0,0.0,0,1003.9,2,2,"",95
"2023-11-27 00:21:00",9.6,8.8,0.0,0.0,0,1003.9,1,2,"",95
"2023-11-27 00:22:00",9.6,8.8,0.0,0.0,0,1003.9,0,1,"",95
"2023-11-27 00:23:00",9.7,8.9,0.0,0.0,0,1003.9,1,3,"",95
"2023-11-27 00:24:00",9.7,8.9,0.0,0.0,0,1003.9,0,2,"",95
"2023-11-27 00:25:00",9.6,8.8,0.0,0.0,0,1003.9,0,1,"",95
"2023-11-27 00:26:00",9.7,8.9,0.0,0.0,0,1003.8,0,1,"",95
"2023-11-27 00:27:00",9.7,8.9,0.0,0.0,0,1003.8,1,2,"",95
"2023-11-27 00:28:00",9.7,8.9,0.0,0.0,0,1003.9,1,5,8.6,95
"2023-11-27 00:29:00",9.7,8.9,0.0,0.0,0,1003.8,1,5,8.6,95
"2023-11-27 00:30:00",9.7,8.9,0.0,0.0,0,1003.8,1,2,"",95
"2023-11-27 00:31:00",9.7,8.9,0.0,0.0,0,1003.9,0,1,"",95
"2023-11-27 00:32:00",9.7,8.9,0.0,0.0,0,1003.8,0,1,"",95
"2023-11-27 00:33:00",9.6,8.8,0.0,0.0,0,1003.9,1,2,"",95
"2023-11-27 00:34:00",9.6,8.8,0.0,0.0,0,1003.9,0,1,"",95
"2023-11-27 00:35:00",9.6,8.8,0.0,0.0,0,1003.9,1,2,"",95
"2023-11-27 00:36:00",9.7,8.9,0.0,0.0,0,1003.8,1,2,"",95
"2023-11-27 00:37:00",9.6,8.8,0.0,0.0,0,1003.8,1,2,"",95
"2023-11-27 00:38:00",9.7,8.9,0.0,0.0,0,1003.8,1,2,"",95
"2023-11-27 00:39:00",9.7,8.9,0.0,0.0,0,1003.8,2,4,9.0,95
"2023-11-27 00:40:00",9.6,8.8,0.0,0.0,0,1003.8,1,4,9.0,95
"2023-11-27 00:41:00",9.6,8.8,0.0,0.0,0,1003.7,1,2,"",95
"2023-11-27 00:42:00",9.6,8.8,0.0,0.0,0,1003.7,0,1,"",95
"2023-11-27 00:43:00",9.6,8.8,0.0,0.0,0,1003.7,1,1,"",95
"2023-11-27 00:44:00",9.6,8.8,0.0,0.0,0,1003.6,2,5,8.5,95
"2023-11-27 00:45:00",9.6,9.0,0.0,0.0,0,1003.7,2,4,8.9,96
"2023-11-27 00:46:00",9.6,8.8,0.0,0.0,0,1003.6,0,1,"",95
"2023-11-27 00:47:00",9.6,8.8,0.0,0.0,0,1003.6,1,3,"",95
"2023-11-27 00:48:00",9.6,8.8,0.0,0.0,0,1003.6,1,2,"",95
"2023-11-27 00:49:00",9.6,8.8,0.0,0.0,0,1003.6,1,2,"",95
"2023-11-27 00:50:00",9.6,8.8,0.0,0.0,0,1003.6,1,2,"",95
"2023-11-27 00:51:00",9.6,8.8,0.0,0.0,0,1003.6,1,2,"",95
"2023-11-27 00:52:00",9.6,8.8,0.0,0.0,0,1003.6,1,4,8.9,95
"2023-11-27 00:53:00",9.6,8.8,0.0,0.0,0,1003.6,1,3,"",95
"2023-11-27 00:54:00",9.6,8.8,0.0,0.0,0,1003.5,2,4,8.9,95
"2023-11-27 00:55:00",9.6,8.8,0.0,0.0,0,1003.5,2,3,"",95
"2023-11-27 00:56:00",9.6,8.8,0.0,0.0,0,1003.5,1,3,"",95
"2023-11-27 00:57:00",9.6,8.8,0.0,0.0,0,1003.5,1,2,"",95
"2023-11-27 00:58:00",9.6,8.8,0.0,0.0,0,1003.6,0,2,"",95
"2023-11-27 00:59:00",9.5,8.7,0.0,0.0,0,1003.5,1,2,"",95
"2023-11-27 01:00:00",9.6,8.8,0.0,0.0,0,1003.5,2,4,8.9,95
"2023-11-27 01:01:00",9.5,8.7,0.0,0.0,0,1003.5,2,3,"",95
"2023-11-27 01:02:00",9.6,8.8,0.0,0.0,0,1003.4,1,2,"",95
"2023-11-27 01:03:00",9.6,8.8,0.0,0.0,0,1003.5,1,2,"",95
"2023-11-27 01:04:00",9.5,8.7,0.0,0.0,0,1003.4,1,2,"",95
"2023-11-27 01:05:00",9.5,8.7,0.0,0.0,0,1003.4,0,1,"",95
"2023-11-27 01:06:00",9.5,8.7,0.0,0.0,0,1003.5,1,2,"",95
"2023-11-27 01:07:00",9.4,8.8,0.0,0.0,0,1003.4,1,3,"",96
"2023-11-27 01:08:00",9.4,8.6,0.0,0.0,0,1003.4,1,2,"",95
"2023-11-27 01:09:00",9.4,8.8,0.0,0.0,0,1003.4,0,1,"",96
"2023-11-27 01:10:00",9.5,8.7,0.0,0.0,0,1003.4,2,3,"",95
"2023-11-27 01:11:00",9.4,8.8,0.0,0.0,0,1003.3,1,2,"",96
"2023-11-27 01:12:00",9.4,8.8,0.0,0.0,0,1003.4,1,3,"",96
"2023-11-27 01:13:00",9.4,8.8,0.0,0.0,0,1003.3,1,2,"",96
"2023-11-27 01:14:00",9.4,8.8,0.0,0.0,0,1003.3,1,2,"",96
"2023-11-27 01:15:00",9.4,8.6,0.0,0.0,0,1003.3,1,2,"",95
"2023-11-27 01:16:00",9.4,8.6,0.0,0.0,0,1003.3,1,2,"",95
"2023-11-27 01:17:00",9.4,8.6,0.0,0.0,0,1003.2,1,2,"",95
"2023-11-27 01:18:00",9.4,8.6,0.0,0.0,0,1003.2,1,2,"",95
"2023-11-27 01:19:00",9.4,8.8,0.0,0.0,0,1003.2,1,3,"",96
"2023-11-27 01:20:00",9.4,8.8,0.0,0.0,0,1003.2,1,2,"",96
"2023-11-27 01:21:00",9.4,8.6,0.0,0.0,0,1003.2,0,1,"",95
"2023-11-27 01:22:00",9.4,8.8,0.0,0.0,0,1003.2,1,1,"",96
"2023-11-27 01:23:00",9.4,8.6,0.0,0.0,0,1003.2,0,2,"",95
"2023-11-27 01:24:00",9.4,8.8,0.0,0.0,0,1003.2,2,4,8.7,96
"2023-11-27 01:25:00",9.4,8.8,0.0,0.0,0,1003.1,1,2,"",96
"2023-11-27 01:26:00",9.4,8.8,0.0,0.0,0,1003.1,1,2,"",96
"2023-11-27 01:27:00",9.4,8.6,0.0,0.0,0,1003.1,1,2,"",95
"2023-11-27 01:28:00",9.4,8.8,0.0,0.0,0,1003.1,0,2,"",96
"2023-11-27 01:29:00",9.4,8.8,0.0,0.0,0,1003.1,1,1,"",96
"2023-11-27 01:30:00",9.4,8.8,0.0,0.0,0,1003.1,1,2,"",96
"2023-11-27 01:31:00",9.4,8.8,0.0,0.0,0,1003.0,1,2,"",96
"2023-11-27 01:32:00",9.4,8.8,0.0,0.0,0,1003.0,1,2,"",96
"2023-11-27 01:33:00",9.4,8.8,0.0,0.0,0,1003.0,1,2,"",96
"2023-11-27 01:34:00",9.4,8.6,0.0,0.0,0,1003.0,1,3,"",95
"2023-11-27 01:35:00",9.4,8.8,0.0,0.0,0,1003.0,0,1,"",96
"2023-11-27 01:36:00",9.4,8.6,0.0,0.0,0,1003.0,2,4,8.7,95
"2023-11-27 01:37:00",9.4,8.8,0.0,0.0,0,1003.0,2,2,"",96
"2023-11-27 01:38:00",9.4,8.6,0.0,0.0,0,1002.9,1,2,"",95
"2023-11-27 01:39:00",9.4,8.8,0.0,0.0,0,1002.9,1,2,"",96
"2023-11-27 01:40:00",9.4,8.8,0.0,0.0,0,1002.9,0,1,"",96
"2023-11-27 01:41:00",9.4,8.6,0.0,0.0,0,1002.9,1,3,"",95
"2023-11-27 01:42:00",9.4,8.6,0.0,0.0,0,1002.8,1,2,"",95
"2023-11-27 01:43:00",9.4,8.6,0.0,0.0,0,1002.9,1,2,"",95
"2023-11-27 01:44:00",9.4,8.6,0.0,0.0,0,1002.9,1,1,"",95
"2023-11-27 01:45:00",9.4,8.6,0.0,0.0,0,1002.8,0,2,"",95
"2023-11-27 01:46:00",9.4,8.6,0.0,0.0,0,1002.8,1,2,"",95
"2023-11-27 01:47:00",9.4,8.8,0.0,0.0,0,1002.8,1,3,"",96
"2023-11-27 01:48:00",9.4,8.6,0.0,0.0,0,1002.7,1,2,"",95
"2023-11-27 01:49:00",9.4,8.6,0.0,0.0,0,1002.8,1,3,"",95
"2023-11-27 01:50:00",9.4,8.6,0.0,0.0,0,1002.7,2,7,7.7,95
"2023-11-27 01:51:00",9.4,8.6,0.0,0.0,0,1002.8,1,2,"",95
"2023-11-27 01:52:00",9.4,8.6,0.0,0.0,0,1002.7,2,2,"",95
"2023-11-27 01:53:00",9.4,8.6,0.0,0.0,0,1002.7,1,2,"",95
"2023-11-27 01:54:00",9.4,8.6,0.0,0.0,0,1002.8,1,3,"",95
"2023-11-27 01:55:00",9.4,8.6,0.0,0.0,0,1002.7,1,2,"",95
"2023-11-27 01:56:00",9.4,8.6,0.0,0.0,0,1002.7,1,2,"",95
"2023-11-27 01:57:00",9.4,8.6,0.0,0.0,0,1002.7,1,2,"",95
"2023-11-27 01:58:00",9.4,8.6,0.0,0.0,0,1002.7,1,2,"",95
"2023-11-27 01:59:00",9.4,8.6,0.0,0.0,0,1002.6,1,2,"",95
"2023-11-27 02:00:00",9.4,8.6,0.0,0.0,0,1002.6,1,2,"",95
"2023-11-27 02:01:00",9.4,8.6,0.0,0.0,0,1002.6,0,2,"",95
"2023-11-27 02:02:00",9.3,8.5,0.0,0.0,0,1002.6,1,2,"",95
"2023-11-27 02:03:00",9.4,8.6,0.0,0.0,0,1002.6,1,3,"",95
"2023-11-27 02:04:00",9.4,8.6,0.0,0.0,0,1002.6,1,3,"",95
"2023-11-27 02:05:00",9.3,8.5,0.0,0.0,0,1002.6,2,3,"",95
"2023-11-27 02:06:00",9.3,8.5,0.0,0.0,0,1002.6,2,4,8.6,95
"2023-11-27 02:07:00",9.3,8.5,0.0,0.0,0,1002.6,1,1,"",95
"2023-11-27 02:08:00",9.3,8.5,0.0,0.0,0,1002.6,0,1,"",95
"2023-11-27 02:09:00",9.3,8.5,0.0,0.0,0,1002.6,1,1,"",95
"2023-11-27 02:10:00",9.3,8.5,0.0,0.0,0,1002.6,1,3,"",95
"2023-11-27 02:11:00",9.3,8.5,0.0,0.0,0,1002.6,3,4,8.6,95
"2023-11-27 02:12:00",9.3,8.5,0.0,0.0,0,1002.6,2,4,8.6,95
"2023-11-27 02:13:00",9.3,8.5,0.0,0.0,0,1002.6,0,1,"",95
"2023-11-27 02:14:00",9.3,8.5,0.0,0.0,0,1002.6,1,2,"",95
"2023-11-27 02:15:00",9.3,8.5,0.0,0.0,0,1002.5,0,1,"",95
"2023-11-27 02:16:00",9.3,8.5,0.0,0.0,0,1002.5,1,2,"",95
"2023-11-27 02:17:00",9.3,8.5,0.0,0.0,0,1002.4,0,2,"",95
"2023-11-27 02:18:00",9.3,8.5,0.0,0.0,0,1002.5,1,2,"",95
"2023-11-27 02:19:00",9.3,8.5,0.0,0.0,0,1002.4,1,2,"",95
"2023-11-27 02:20:00",9.3,8.5,0.0,0.0,0,1002.4,1,2,"",95
"2023-11-27 02:21:00",9.3,8.5,0.0,0.0,0,1002.4,1,2,"",95
"2023-11-27 02:22:00",9.3,8.5,0.0,0.0,0,1002.4,1,3,"",95
"2023-11-27 02:23:00",9.3,8.5,0.0,0.0,0,1002.4,1,2,"",95
"2023-11-27 02:24:00",9.3,8.5,0.0,0.0,0,1002.3,0,1,"",95
"2023-11-27 02:25:00",9.3,8.7,0.0,0.0,0,1002.4,1,2,"",96
"2023-11-27 02:26:00",9.3,8.5,0.0,0.0,0,1002.3,1,3,"",95
"2023-11-27 02:27:00",9.2,8.4,0.0,0.0,0,1002.3,1,2,"",95
"2023-11-27 02:28:00",9.2,8.4,0.0,0.0,0,1002.3,1,2,"",95
"2023-11-27 02:29:00",9.2,8.4,0.0,0.0,0,1002.3,3,5,8.1,95
"2023-11-27 02:30:00",9.2,8.4,0.0,0.0,0,1002.3,2,4,8.4,95
"2023-11-27 02:31:00",9.2,8.4,0.0,0.0,0,1002.3,1,2,"",95
"2023-11-27 02:32:00",9.2,8.6,0.0,0.0,0,1002.3,1,1,"",96
"2023-11-27 02:33:00",9.2,8.6,0.0,0.0,0,1002.3,2,3,"",96
"2023-11-27 02:34:00",9.2,8.6,0.0,0.0,0,1002.2,1,2,"",96
"2023-11-27 02:35:00",9.2,8.6,0.0,0.0,0,1002.2,1,2,"",96
"2023-11-27 02:36:00",9.2,8.6,0.0,0.0,0,1002.2,3,4,8.4,96
"2023-11-27 02:37:00",9.2,8.6,0.0,0.0,0,1002.2,3,6,7.7,96
"2023-11-27 02:38:00",9.2,8.6,0.0,0.0,0,1002.2,2,3,"",96
"2023-11-27 02:39:00",9.2,8.6,0.0,0.0,0,1002.2,1,2,"",96
"2023-11-27 02:40:00",9.2,8.6,0.0,0.0,0,1002.2,1,3,"",96
"2023-11-27 02:41:00",9.2,8.6,0.0,0.0,0,1002.3,1,3,"",96
"2023-11-27 02:42:00",9.2,8.6,0.0,0.0,0,1002.2,2,3,"",96
"2023-11-27 02:43:00",9.2,8.6,0.0,0.0,0,1002.2,0,2,"",96
"2023-11-27 02:44:00",9.2,8.6,0.0,0.0,0,1002.2,2,3,"",96
"2023-11-27 02:45:00",9.2,8.6,0.0,0.0,0,1002.2,2,3,"",96
"2023-11-27 02:46:00",9.2,8.6,0.0,0.0,0,1002.2,2,4,8.4,96
"2023-11-27 02:47:00",9.2,8.6,0.0,0.0,0,1002.2,1,3,"",96
"2023-11-27 02:48:00",9.2,8.6,0.0,0.0,0,1002.1,2,3,"",96
"2023-11-27 02:49:00",9.2,8.6,0.0,0.0,0,1002.2,1,2,"",96
"2023-11-27 02:50:00",9.2,8.6,0.0,0.0,0,1002.1,1,2,"",96
"2023-11-27 02:51:00",9.2,8.6,0.0,0.0,0,1002.1,1,3,"",96
"2023-11-27 02:52:00",9.2,8.6,0.0,0.0,0,1002.1,2,4,8.4,96
"2023-11-27 02:53:00",9.2,8.6,0.0,0.0,0,1002.1,1,2,"",96
"2023-11-27 02:54:00",9.2,8.6,0.0,0.0,0,1002.1,0,2,"",96
"2023-11-27 02:55:00",9.2,8.6,0.0,0.0,0,1002.0,2,4,8.4,96
"2023-11-27 02:56:00",9.2,8.6,0.0,0.0,0,1002.0,2,5,8.1,96
"2023-11-27 02:57:00",9.2,8.6,0.0,0.0,0,1002.0,1,2,"",96
"2023-11-27 02:58:00",9.3,8.7,0.0,0.0,0,1002.0,1,2,"",96
"2023-11-27 02:59:00",9.2,8.6,0.0,0.0,0,1001.9,1,2,"",96
"2023-11-27 03:00:00",9.2,8.6,0.0,0.0,0,1001.9,1,2,"",96
"2023-11-27 03:01:00",9.2,8.6,0.0,0.0,0,1001.9,0,1,"",96
"2023-11-27 03:02:00",9.2,8.6,0.0,0.0,0,1001.9,1,3,"",96
"2023-11-27 03:03:00",9.2,8.6,0.0,0.0,0,1001.9,3,5,8.1,96
"2023-11-27 03:04:00",9.2,8.6,0.0,0.0,0,1001.9,2,3,"",96
"2023-11-27 03:05:00",9.2,8.6,0.0,0.0,0,1001.9,1,3,"",96
"2023-11-27 03:06:00",9.3,8.7,0.0,0.0,0,1001.9,1,2,"",96
"2023-11-27 03:07:00",9.3,8.5,0.0,0.0,0,1001.8,0,2,"",95
"2023-11-27 03:08:00",9.3,8.7,0.0,0.0,0,1001.9,1,2,"",96
"2023-11-27 03:09:00",9.3,8.5,0.0,0.0,0,1001.8,1,3,"",95
"2023-11-27 03:10:00",9.3,8.7,0.0,0.0,0,1001.8,1,2,"",96
"2023-11-27 03:11:00",9.3,8.5,0.0,0.0,0,1001.7,1,2,"",95
"2023-11-27 03:12:00",9.3,8.5,0.0,0.0,0,1001.7,0,1,"",95
"2023-11-27 03:13:00",9.3,8.5,0.0,0.0,0,1001.6,1,2,"",95
"2023-11-27 03:14:00",9.3,8.5,0.0,0.0,0,1001.6,1,2,"",95
"2023-11-27 03:15:00",9.3,8.5,0.0,0.0,0,1001.5,1,2,"",95
"2023-11-27 03:16:00",9.3,8.5,0.0,0.0,0,1001.5,0,1,"",95
"2023-11-27 03:17:00",9.3,8.5,0.0,0.0,0,1001.6,1,2,"",95
"2023-11-27 03:18:00",9.3,8.5,0.0,0.0,0,1001.5,1,2,"",95
"2023-11-27 03:19:00",9.3,8.5,0.0,0.0,0,1001.5,2,3,"",95
"2023-11-27 03:20:00",9.3,8.5,0.0,0.0,0,1001.5,1,1,"",95
"2023-11-27 03:21:00",9.3,8.5,0.0,0.0,0,1001.4,2,4,8.6,95
"2023-11-27 03:22:00",9.3,8.5,0.0,0.0,0,1001.4,1,3,"",95
"2023-11-27 03:23:00",9.3,8.5,0.0,0.0,0,1001.4,1,2,"",95
"2023-11-27 03:24:00",9.3,8.5,0.0,0.0,0,1001.3,2,3,"",95
"2023-11-27 03:25:00",9.3,8.5,0.0,0.0,0,1001.3,1,2,"",95
"2023-11-27 03:26:00",9.3,8.5,0.0,0.0,0,1001.3,0,2,"",95
"2023-11-27 03:27:00",9.3,8.5,0.0,0.0,0,1001.3,1,3,"",95
"2023-11-27 03:28:00",9.3,8.5,0.0,0.0,0,1001.3,1,3,"",95
"2023-11-27 03:29:00",9.3,8.5,0.0,0.0,0,1001.3,1,2,"",95
"2023-11-27 03:30:00",9.3,8.5,0.0,0.0,0,1001.3,1,2,"",95
"2023-11-27 03:31:00",9.3,8.5,0.0,0.0,0,1001.2,2,4,8.6,95
"2023-11-27 03:32:00",9.3,8.5,0.0,0.0,0,1001.2,1,2,"",95
"2023-11-27 03:33:00",9.3,8.5,0.0,0.0,0,1001.2,2,3,"",95
"2023-11-27 03:34:00",9.3,8.5,0.0,0.0,0,1001.2,2,3,"",95
"2023-11-27 03:35:00",9.3,8.5,0.0,0.0,0,1001.2,2,4,8.6,95
"2023-11-27 03:36:00",9.3,8.5,0.0,0.0,0,1001.2,1,2,"",95
"2023-11-27 03:37:00",9.3,8.5,0.0,0.0,0,1001.1,1,2,"",95
"2023-11-27 03:38:00",9.3,8.5,0.0,0.0,0,1001.1,2,6,7.9,95
"2023-11-27 03:39:00",9.3,8.5,0.0,0.0,0,1001.0,1,3,"",95
"2023-11-27 03:40:00",9.3,8.5,0.0,0.0,0,1001.1,1,2,"",95
"2023-11-27 03:41:00",9.3,8.5,0.0,0.0,0,1001.0,1,2,"",95
"2023-11-27 03:42:00",9.3,8.5,0.0,0.0,0,1001.0,0,2,"",95
"2023-11-27 03:43:00",9.3,8.5,0.0,0.0,0,1000.9,1,1,"",95
"2023-11-27 03:44:00",9.3,8.5,0.0,0.0,0,1000.9,1,2,"",95
"2023-11-27 03:45:00",9.3,8.5,0.0,0.0,0,1000.9,1,2,"",95
"2023-11-27 03:46:00",9.3,8.5,0.0,0.0,0,1000.9,1,2,"",95
"2023-11-27 03:47:00",9.3,8.5,0.0,0.0,0,1000.9,0,1,"",95
"2023-11-27 03:48:00",9.3,8.5,0.0,0.0,0,1001.0,0,1,"",95
"2023-11-27 03:49:00",9.3,8.5,0.0,0.0,0,1001.0,1,1,"",95
"2023-11-27 03:50:00",9.3,8.5,0.0,0.0,0,1001.0,1,2,"",95
"2023-11-27 03:51:00",9.3,8.5,0.0,0.0,0,1000.9,0,2,"",95
"2023-11-27 03:52:00",9.3,8.5,0.0,0.0,0,1000.9,1,2,"",95
"2023-11-27 03:53:00",9.3,8.5,0.0,0.0,0,1000.9,0,1,"",95
"2023-11-27 03:54:00",9.3,8.7,0.0,0.0,0,1000.9,0,1,"",96
"2023-11-27 03:55:00",9.3,8.5,0.0,0.0,0,1000.9,0,1,"",95
"2023-11-27 03:56:00",9.3,8.5,0.0,0.0,0,1000.9,1,2,"",95
"2023-11-27 03:57:00",9.3,8.5,0.0,0.0,0,1000.9,2,4,8.6,95
"2023-11-27 03:58:00",9.3,8.5,0.0,0.0,0,1000.9,1,2,"",95
"2023-11-27 03:59:00",9.3,8.5,0.0,0.0,0,1000.8,2,3,"",95
"2023-11-27 04:00:00",9.3,8.5,0.0,0.0,0,1000.8,1,1,"",95
"2023-11-27 04:01:00",9.3,8.5,0.0,0.0,0,1000.8,1,2,"",95
"2023-11-27 04:02:00",9.3,8.5,0.0,0.0,0,1000.8,1,2,"",95
"2023-11-27 04:03:00",9.2,8.6,0.0,0.0,0,1000.8,1,1,"",96
"2023-11-27 04:04:00",9.3,8.7,0.0,0.0,0,1000.7,1,3,"",96
"2023-11-27 04:05:00",9.2,8.4,0.0,0.0,0,1000.7,1,2,"",95
"2023-11-27 04:06:00",9.2,8.6,0.0,0.0,0,1000.7,1,2,"",96
"2023-11-27 04:07:00",9.2,8.6,0.0,0.0,0,1000.7,1,2,"",96
"2023-11-27 04:08:00",9.2,8.4,0.0,0.0,0,1000.7,1,2,"",95
"2023-11-27 04:09:00",9.2,8.6,0.0,0.0,0,1000.7,1,2,"",96
"2023-11-27 04:10:00",9.2,8.6,0.0,0.0,0,1000.7,1,2,"",96
"2023-11-27 04:11:00",9.2,8.6,0.0,0.0,0,1000.7,1,2,"",96
"2023-11-27 04:12:00",9.2,8.6,0.0,0.0,0,1000.7,1,2,"",96
"2023-11-27 04:13:00",9.2,8.6,0.0,0.0,0,1000.7,1,2,"",96
"2023-11-27 04:14:00",9.2,8.6,0.0,0.0,0,1000.6,1,1,"",96
"2023-11-27 04:15:00",9.2,8.6,0.0,0.0,0,1000.6,0,1,"",96
"2023-11-27 04:16:00",9.2,8.6,0.0,0.0,0,1000.6,0,2,"",96
"2023-11-27 04:17:00",9.3,8.7,0.0,0.0,0,1000.6,3,6,7.7,96
"2023-11-27 04:18:00",9.2,8.6,0.0,0.0,0,1000.7,1,3,"",96
"2023-11-27 04:19:00",9.2,8.6,0.0,0.0,0,1000.6,1,2,"",96
"2023-11-27 04:20:00",9.3,8.7,0.0,0.0,0,1000.6,1,2,"",96
"2023-11-27 04:21:00",9.2,8.6,0.2,0.0,0,1000.6,1,1,"",96
"2023-11-27 04:22:00",9.2,8.6,0.2,0.0,0,1000.6,1,2,"",96
"2023-11-27 04:23:00",9.2,8.6,0.2,0.0,0,1000.6,0,1,"",96
"2023-11-27 04:24:00",9.2,8.6,0.2,0.0,0,1000.6,0,1,"",96
"2023-11-27 04:25:00",9.2,8.6,0.2,0.0,0,1000.6,2,3,"",96
"2023-11-27 04:26:00",9.2,8.6,0.2,0.0,0,1000.7,1,2,"",96
"2023-11-27 04:27:00",9.2,8.6,0.2,0.0,0,1000.7,1,2,"",96
"2023-11-27 04:28:00",9.2,8.6,0.2,0.0,0,1000.6,0,1,"",96
"2023-11-27 04:29:00",9.2,8.6,0.2,0.0,0,1000.7,1,1,"",96
"2023-11-27 04:30:00",9.2,8.6,0.2,0.0,0,1000.7,2,4,8.4,96
"2023-11-27 04:31:00",9.2,8.6,0.2,0.0,0,1000.6,1,2,"",96
"2023-11-27 04:32:00",9.2,8.6,0.2,0.0,0,1000.6,1,1,"",96
"2023-11-27 04:33:00",9.3,8.7,0.2,0.0,0,1000.7,0,0,"",96
"2023-11-27 04:34:00",9.2,8.6,0.2,0.0,0,1000.6,0,1,"",96
"2023-11-27 04:35:00",9.2,8.6,0.2,0.0,0,1000.6,1,2,"",96
"2023-11-27 04:36:00",9.2,8.6,0.2,0.0,0,1000.6,1,2,"",96
"2023-11-27 04:37:00",9.2,8.6,0.2,0.0,0,1000.6,1,3,"",96
"2023-11-27 04:38:00",9.2,8.6,0.4,0.0,0,1000.6,1,4,8.4,96
"2023-11-27 04:39:00",9.2,8.6,0.4,0.0,0,1000.6,1,2,"",96
"2023-11-27 04:40:00",9.2,8.6,0.4,0.0,0,1000.6,1,2,"",96
"2023-11-27 04:41:00",9.2,8.6,0.4,0.0,0,1000.6,1,1,"",96
"2023-11-27 04:42:00",9.2,8.6,0.4,0.0,0,1000.6,1,2,"",96
"2023-11-27 04:43:00",9.2,8.6,0.4,0.0,0,1000.6,1,3,"",96
"2023-11-27 04:44:00",9.2,8.6,0.4,0.0,0,1000.6,0,2,"",96
"2023-11-27 04:45:00",9.2,8.6,0.4,0.0,0,1000.5,1,2,"",96
"2023-11-27 04:46:00",9.2,8.6,0.4,0.0,0,1000.5,1,2,"",96
"2023-11-27 04:47:00",9.2,8.6,0.4,0.0,0,1000.6,0,1,"",96
"2023-11-27 04:48:00",9.2,8.6,0.4,0.0,0,1000.6,0,1,"",96
"2023-11-27 04:49:00",9.2,8.6,0.4,0.0,0,1000.6,1,1,"",96
"2023-11-27 04:50:00",9.2,8.6,0.4,0.0,0,1000.5,1,2,"",96
"2023-11-27 04:51:00",9.2,8.6,0.4,0.0,0,1000.5,2,3,"",96
"2023-11-27 04:52:00",9.2,8.6,0.4,0.0,0,1000.5,1,2,"",96
"2023-11-27 04:53:00",9.2,8.6,0.4,0.0,0,1000.5,1,2,"",96
"2023-11-27 04:54:00",9.2,8.6,0.4,0.0,0,1000.5,1,2,"",96
"2023-11-27 04:55:00",9.2,8.6,0.4,0.0,0,1000.5,1,3,"",96
"2023-11-27 04:56:00",9.2,8.6,0.4,0.0,0,1000.5,1,2,"",96
"2023-11-27 04:57:00",9.2,8.6,0.4,0.0,0,1000.5,1,2,"",96
"2023-11-27 04:58:00",9.2,8.6,0.4,0.0,0,1000.5,1,3,"",96
"2023-11-27 04:59:00",9.2,8.6,0.4,0.0,0,1000.5,1,3,"",96
"2023-11-27 05:00:00",9.2,8.6,0.4,0.0,0,1000.5,2,2,"",96
"2023-11-27 05:01:00",9.1,8.5,0.4,0.0,0,1000.5,1,2,"",96
"2023-11-27 05:02:00",9.2,8.6,0.4,0.0,0,1000.5,1,3,"",96
"2023-11-27 05:03:00",9.2,8.6,0.4,0.0,0,1000.4,1,2,"",96
"2023-11-27 05:04:00",9.1,8.5,0.4,0.0,0,1000.4,1,2,"",96
"2023-11-27 05:05:00",9.1,8.5,0.6,0.0,0,1000.4,1,3,"",96
"2023-11-27 05:06:00",9.1,8.5,0.6,0.0,0,1000.4,1,2,"",96
"2023-11-27 05:07:00",9.1,8.5,0.6,0.0,0,1000.4,1,2,"",96
"2023-11-27 05:08:00",9.1,8.5,0.6,0.0,0,1000.4,1,2,"",96
"2023-11-27 05:09:00",9.1,8.5,0.6,0.0,0,1000.4,1,2,"",96
"2023-11-27 05:10:00",9.1,8.5,0.6,0.0,0,1000.3,1,2,"",96
"2023-11-27 05:11:00",9.1,8.5,0.6,0.0,0,1000.3,1,2,"",96
"2023-11-27 05:12:00",9.1,8.5,0.6,0.0,0,1000.3,0,2,"",96
"2023-11-27 05:13:00",9.1,8.5,0.6,0.0,0,1000.3,1,2,"",96
"2023-11-27 05:14:00",9.1,8.5,0.6,0.0,0,1000.3,1,2,"",96
"2023-11-27 05:15:00",9.1,8.5,0.6,0.0,0,1000.2,1,2,"",96
"2023-11-27 05:16:00",9.1,8.5,0.8,0.0,0,1000.3,0,1,"",96
"2023-11-27 05:17:00",9.1,8.5,0.8,0.0,0,1000.2,1,3,"",96
"2023-11-27 05:18:00",9.1,8.5,0.8,0.0,0,1000.2,2,3,"",96
"2023-11-27 05:19:00",9.1,8.5,0.8,0.0,0,1000.2,1,2,"",96
"2023-11-27 05:20:00",9.1,8.5,0.8,0.0,0,1000.3,1,2,"",96
"2023-11-27 05:21:00",9.1,8.3,0.8,0.0,0,1000.2,1,3,"",95
"2023-11-27 05:22:00",9.1,8.3,0.8,0.0,0,1000.2,2,4,8.3,95
"2023-11-27 05:23:00",9.1,8.3,0.8,0.0,0,1000.2,1,1,"",95
"2023-11-27 05:24:00",9.1,8.3,0.8,0.0,0,1000.2,0,1,"",95
"2023-11-27 05:25:00",9.1,8.3,0.8,0.0,0,1000.2,0,1,"",95
"2023-11-27 05:26:00",9.1,8.3,0.8,0.0,0,1000.2,0,1,"",95
"2023-11-27 05:27:00",9.1,8.3,0.8,0.0,0,1000.2,1,2,"",95
"2023-11-27 05:28:00",9.1,8.3,0.8,0.0,0,1000.2,1,2,"",95
"2023-11-27 05:29:00",9.1,8.3,0.8,0.0,0,1000.1,2,3,"",95
"2023-11-27 05:30:00",9.1,8.3,0.8,0.0,0,1000.1,1,2,"",95
"2023-11-27 05:31:00",9.1,8.3,0.8,0.0,0,1000.1,1,2,"",95
"2023-11-27 05:32:00",9.1,8.3,0.8,0.0,0,1000.1,1,2,"",95
"2023-11-27 05:33:00",9.1,8.3,0.8,0.0,0,1000.1,1,2,"",95
"2023-11-27 05:34:00",9.1,8.3,0.8,0.0,0,1000.0,0,1,"",95
"2023-11-27 05:35:00",9.1,8.3,0.8,0.0,0,1000.0,1,2,"",95
"2023-11-27 05:36:00",9.1,8.3,0.8,0.0,0,1000.1,0,2,"",95
"2023-11-27 05:37:00",9.0,8.2,0.8,0.0,0,1000.0,2,3,"",95
"2023-11-27 05:38:00",9.1,8.3,0.8,0.0,0,1000.0,1,3,"",95
"2023-11-27 05:39:00",9.0,8.2,1.0,0.0,0,1000.0,1,2,"",95
"2023-11-27 05:40:00",9.0,8.2,1.0,0.0,0,1000.0,1,2,"",95
"2023-11-27 05:41:00",9.0,8.2,1.0,0.0,0,1000.0,1,2,"",95
"2023-11-27 05:42:00",9.1,8.3,1.0,0.0,0,1000.0,1,1,"",95
"2023-11-27 05:43:00",9.0,8.2,1.0,0.0,0,999.9,0,1,"",95
"2023-11-27 05:44:00",9.0,8.2,1.0,0.0,0,1000.0,1,2,"",95
"2023-11-27 05:45:00",9.0,8.2,1.0,0.0,0,999.9,2,3,"",95
"2023-11-27 05:46:00",8.9,8.1,1.0,0.0,0,999.9,1,2,"",95
"2023-11-27 05:47:00",8.9,8.1,1.0,0.0,0,999.9,1,2,"",95
"2023-11-27 05:48:00",8.9,8.1,1.0,0.0,0,999.9,1,3,"",95
"2023-11-27 05:49:00",8.9,8.1,1.0,0.0,0,999.9,1,2,"",95
"2023-11-27 05:50:00",8.9,8.1,1.0,0.0,0,999.9,1,2,"",95
"2023-11-27 05:51:00",8.9,8.1,1.0,0.0,0,999.9,2,3,"",95
"2023-11-27 05:52:00",8.9,8.1,1.0,0.0,0,999.8,1,2,"",95
"2023-11-27 05:53:00",8.9,8.1,1.0,0.0,0,999.9,1,2,"",95
"2023-11-27 05:54:00",8.9,8.1,1.0,0.0,0,999.9,2,3,"",95
"2023-11-27 05:55:00",8.9,8.1,1.2,0.0,0,999.8,1,3,"",95
"2023-11-27 05:56:00",8.9,8.1,1.2,0.0,0,999.8,2,3,"",95
"2023-11-27 05:57:00",8.9,8.1,1.2,0.0,0,999.8,1,2,"",95
"2023-11-27 05:58:00",8.9,8.1,1.2,0.0,0,999.8,1,2,"",95
"2023-11-27 05:59:00",8.9,8.1,1.2,0.0,0,999.7,2,3,"",95
"2023-11-27 06:00:00",8.9,8.1,1.2,0.0,0,999.7,1,2,"",95
"2023-11-27 06:01:00",8.9,8.1,1.2,0.0,0,999.7,1,1,"",95
"2023-11-27 06:02:00",8.9,8.3,1.2,0.0,0,999.7,1,2,"",96
"2023-11-27 06:03:00",8.9,8.1,1.2,0.0,0,999.6,1,2,"",95
"2023-11-27 06:04:00",8.9,8.1,1.2,0.0,0,999.7,0,1,"",95
"2023-11-27 06:05:00",8.9,8.1,1.2,0.0,0,999.6,1,2,"",95
"2023-11-27 06:06:00",8.9,8.1,1.2,0.0,0,999.6,1,2,"",95
"2023-11-27 06:07:00",8.9,8.1,1.2,0.0,0,999.6,1,2,"",95
"2023-11-27 06:08:00",8.9,8.1,1.2,0.0,0,999.6,1,2,"",95
"2023-11-27 06:09:00",8.9,8.1,1.2,0.0,0,999.5,1,1,"",95
"2023-11-27 06:10:00",8.9,8.3,1.2,0.0,0,999.5,0,1,"",96
"2023-11-27 06:11:00",8.9,8.1,1.2,0.0,0,999.5,0,1,"",95
"2023-11-27 06:12:00",8.9,8.1,1.2,0.0,0,999.5,1,3,"",95
"2023-11-27 06:13:00",8.9,8.1,1.2,0.0,0,999.5,1,2,"",95
"2023-11-27 06:14:00",8.9,8.3,1.2,0.0,0,999.4,1,2,"",96
"2023-11-27 06:15:00",8.9,8.1,1.2,0.0,0,999.4,0,2,"",95
"2023-11-27 06:16:00",8.9,8.1,1.2,0.0,0,999.5,1,2,"",95
"2023-11-27 06:17:00",8.9,8.3,1.2,0.0,0,999.4,1,2,"",96
"2023-11-27 06:18:00",8.9,8.3,1.2,0.0,0,999.4,0,1,"",96
"2023-11-27 06:19:00",8.9,8.1,1.2,0.0,0,999.4,2,3,"",95
"2023-11-27 06:20:00",8.9,8.1,1.2,0.0,0,999.4,1,2,"",95
"2023-11-27 06:21:00",8.9,8.3,1.2,0.0,0,999.4,0,1,"",96
"2023-11-27 06:22:00",8.9,8.1,1.2,0.0,0,999.3,1,2,"",95
"2023-11-27 06:23:00",8.9,8.3,1.4,0.0,0,999.3,1,2,"",96
"2023-11-27 06:24:00",8.9,8.3,1.4,0.0,0,999.2,1,2,"",96
"2023-11-27 06:25:00",8.9,8.3,1.4,0.0,0,999.3,1,2,"",96
"2023-11-27 06:26:00",8.9,8.3,1.4,0.0,0,999.3,1,2,"",96
"2023-11-27 06:27:00",8.9,8.3,1.4,0.0,0,999.2,2,3,"",96
"2023-11-27 06:28:00",8.9,8.3,1.4,0.0,0,999.2,1,1,"",96
"2023-11-27 06:29:00",8.9,8.3,1.4,0.0,0,999.1,1,2,"",96
"2023-11-27 06:30:00",8.9,8.3,1.4,0.0,0,999.1,1,2,"",96
"2023-11-27 06:31:00",8.8,8.2,1.4,0.0,0,999.1,1,2,"",96
"2023-11-27 06:32:00",8.9,8.3,1.4,0.0,0,999.1,1,2,"",96
"2023-11-27 06:33:00",8.9,8.3,1.4,0.0,0,999.1,1,2,"",96
"2023-11-27 06:34:00",8.9,8.3,1.4,0.0,0,999.2,1,2,"",96
"2023-11-27 06:35:00",8.9,8.3,1.4,0.0,0,999.2,1,2,"",96
"2023-11-27 06:36:00",8.9,8.3,1.4,0.0,0,999.2,1,2,"",96
"2023-11-27 06:37:00",8.8,8.2,1.4,0.0,0,999.3,0,2,"",96
"2023-11-27 06:38:00",8.8,8.2,1.4,0.0,0,999.3,1,1,"",96
"2023-11-27 06:39:00",8.8,8.2,1.4,0.0,0,999.2,1,2,"",96
"2023-11-27 06:40:00",8.9,8.3,1.4,0.0,0,999.3,0,1,"",96
"2023-11-27 06:41:00",8.8,8.2,1.4,0.0,0,999.2,0,1,"",96
"2023-11-27 06:42:00",8.8,8.2,1.4,0.0,0,999.2,1,2,"",96
"2023-11-27 06:43:00",8.8,8.2,1.4,0.0,0,999.1,1,2,"",96
"2023-11-27 06:44:00",8.8,8.2,1.4,0.0,0,999.1,1,2,"",96
"2023-11-27 06:45:00",8.8,8.2,1.4,0.0,0,999.1,0,1,"",96
"2023-11-27 06:46:00",8.8,8.2,1.4,0.0,0,999.1,1,1,"",96
"2023-11-27 06:47:00",8.8,8.2,1.4,0.0,0,999.1,0,1,"",96
"2023-11-27 06:48:00",8.8,8.2,1.4,0.0,0,999.1,0,2,"",96
"2023-11-27 06:49:00",8.8,8.2,1.4,0.0,0,999.2,1,2,"",96
"2023-11-27 06:50:00",8.8,8.2,1.4,0.0,0,999.2,0,2,"",96
"2023-11-27 06:51:00",8.8,8.2,1.4,0.0,0,999.1,1,2,"",96
"2023-11-27 06:52:00",8.8,8.2,1.4,0.0,0,999.2,1,2,"",96
"2023-11-27 06:53:00",8.8,8.2,1.4,0.0,0,999.1,0,1,"",96
"2023-11-27 06:54:00",8.8,8.2,1.4,0.0,0,999.1,0,1,"",96
"2023-11-27 06:55:00",8.8,8.2,1.4,0.0,0,999.0,1,1,"",96
"2023-11-27 06:56:00",8.8,8.2,1.4,0.0,0,999.0,0,1,"",96
"2023-11-27 06:57:00",8.8,8.2,1.4,0.0,0,999.0,1,3,"",96
"2023-11-27 06:58:00",8.8,8.2,1.4,0.0,0,999.0,1,2,"",96
"2023-11-27 06:59:00",8.8,8.2,1.4,0.0,0,999.0,1,2,"",96